{"data":{"norad_id":61779,"epoch":"2026-09-19T22:01:43.021920Z","epoch_age_seconds":64645,"freshness":"FRESH","line1":"1 61779U 24199AW  26262.91785905  .00005685  00000+0  15107-3 0  9997","line2":"2 61779  97.2871 131.6757 0011239 333.1343  26.9319 15.38597442151670","mean_motion":15.38597442,"eccentricity":0.0011239,"inclination_deg":97.2871,"raan_deg":131.6757,"arg_perigee_deg":333.1343,"mean_anomaly_deg":26.9319,"bstar":0.00015107,"rev_number":15167,"period_min":93.591732359061,"perigee_km":442.58149818993,"apogee_km":457.93035981574,"semimajor_km":6828.3929290028,"source":"CELESTRAK","updated_at":"2026-09-20T09:00:45.241338Z"}}